Date,TemperatureHighF,TemperatureAvgF,TemperatureLowF,DewpointHighF,DewpointAvgF,DewpointLowF,HumidityHigh,HumidityAvg,HumidityLow,PressureMaxIn,PressureMinIn,WindSpeedMaxMPH,WindSpeedAvgMPH,GustSpeedMaxMPH,PrecipitationSumIn
2013-1-1,47,45,42,46,41,31,97,85,57,30.07,29.89,3,0,9,0.18
2013-1-2,46,43,38,45,41,37,98,95,84,30.16,29.91,2,0,7,0.19
2013-1-3,44,38,28,38,36,27,98,92,77,30.23,30.12,2,0,8,0.02
2013-1-4,49,36,24,35,27,23,97,74,39,30.29,30.16,3,0,10,0.15
2013-1-5,50,36,24,34,27,22,95,74,39,30.35,30.24,2,0,6,0.02
2013-1-6,50,41,33,41,37,32,96,84,59,30.24,30.03,2,0,6,0.01
2013-1-7,53,36,26,37,31,25,98,82,46,30.41,30.15,2,0,7,0.01
2013-1-8,54,37,26,42,33,25,97,86,56,30.45,30.34,1,0,6,0.00
2013-1-9,67,47,31,54,42,30,98,86,61,30.42,30.32,3,0,8,0.00
2013-1-10,64,49,40,48,43,37,98,82,48,30.51,30.38,2,0,6,0.00
2013-1-11,49,46,40,48,43,33,98,90,61,30.42,30.12,0,0,3,0.21
2013-1-12,66,56,48,62,54,47,99,96,84,30.14,30.07,2,0,5,0.01
2013-1-13,74,62,53,63,58,52,99,89,66,30.11,30.02,3,1,10,0.01
2013-1-14,67,62,55,63,60,52,98,91,80,30.12,30.04,3,0,8,0.10
2013-1-15,54,45,43,53,44,42,98,96,94,30.22,30.05,3,0,9,0.06
2013-1-16,49,45,42,48,44,41,98,98,97,30.06,29.94,3,0,7,0.14
2013-1-17,50,45,33,49,44,32,98,97,95,30.11,29.89,5,0,16,1.10
2013-1-18,46,36,28,36,31,26,98,85,47,30.50,30.10,3,0,9,0.88
2013-1-19,54,35,24,36,28,23,97,81,37,30.48,30.12,5,0,10,0.02
2013-1-20,63,45,31,40,35,30,96,72,33,30.12,29.95,4,1,15,0.01
2013-1-21,59,41,26,38,29,22,98,68,30,30.06,29.82,4,0,10,0.01
2013-1-22,38,32,21,26,11,-1,69,43,20,30.25,29.92,4,1,12,0.00
2013-1-23,40,27,16,20,13,7,88,61,31,30.35,30.03,4,0,9,0.00
2013-1-24,36,29,20,25,16,4,84,59,33,30.49,29.93,6,0,17,0.00
2013-1-25,28,23,18,27,17,8,94,78,47,30.50,30.08,3,0,7,0.00
2013-1-26,32,28,27,30,27,25,95,94,93,30.22,30.06,1,0,5,0.00
2013-2-2,45,41,38,31,23,14,62,49,32,30.11,30.00,4,0,9,0.00
2013-2-3,49,41,33,36,30,24,93,68,43,30.00,29.82,2,0,10,0.00
2013-2-4,48,37,24,29,24,20,90,62,37,30.12,29.96,2,0,11,0.00
2013-2-5,58,45,34,39,33,29,92,64,39,29.98,29.85,4,0,11,0.00
2013-2-6,61,42,28,41,30,25,97,69,25,30.23,29.94,4,0,11,0.00
2013-2-7,48,40,34,42,36,30,96,84,68,30.32,30.00,2,0,6,0.45
2013-2-8,54,45,39,46,40,30,96,84,58,30.01,29.78,4,1,15,1.16
2013-2-9,53,38,27,31,25,18,95,66,26,30.33,30.01,5,0,10,0.01
2013-2-10,52,37,23,36,25,21,94,67,30,30.46,30.19,5,1,11,0.03
2013-2-11,62,54,44,60,52,40,98,93,87,30.19,29.88,5,0,11,0.06
2013-2-12,61,52,42,53,38,29,93,64,31,30.06,29.89,3,0,12,0.02
2013-2-13,47,45,43,46,44,39,97,94,83,29.92,29.60,3,0,9,0.37
2013-2-14,52,40,30,39,34,29,98,81,48,30.05,29.79,3,0,13,0.01
2013-2-15,62,42,27,42,33,26,98,76,34,30.06,29.89,2,0,9,0.00
2013-2-16,44,37,32,37,34,30,96,89,72,29.95,29.81,1,0,10,0.40
2013-2-17,37,30,22,30,18,9,95,65,31,30.23,29.88,7,1,18,0.04
2013-2-18,52,33,17,28,20,15,95,64,27,30.38,30.23,4,1,13,0.01
2013-2-19,51,40,28,50,37,26,96,89,64,30.23,29.83,4,1,13,0.12
2013-2-20,52,39,29,36,23,13,97,59,21,30.12,29.92,4,1,11,0.01
2013-2-21,53,38,23,29,22,17,87,58,24,30.24,30.09,4,0,9,0.00
2013-2-22,41,36,32,36,32,23,96,84,48,30.33,30.12,2,0,6,0.23
2013-2-23,44,40,36,43,39,35,97,96,95,30.12,29.79,2,0,7,0.65
2013-2-24,62,48,35,46,39,31,98,75,31,30.01,29.76,4,0,9,0.14
2013-2-25,43,36,30,32,26,24,95,69,47,30.20,30.01,2,0,8,0.00
2013-2-26,56,44,30,55,41,27,98,90,70,30.13,29.53,5,1,14,0.75
2013-2-27,60,49,39,45,41,36,98,78,43,29.75,29.59,4,1,11,0.01
2013-2-28,50,41,32,39,33,27,98,75,44,29.82,29.67,4,0,13,0.01
2013-3-1,48,38,27,35,30,26,96,73,46,29.89,29.80,3,0,11,0.00
2013-3-2,47,39,31,31,27,22,92,64,43,29.89,29.78,4,1,11,0.00
2013-3-3,47,36,27,24,22,18,86,58,37,29.95,29.80,4,1,12,0.00
2013-3-4,50,35,23,25,18,15,82,55,24,30.07,29.94,5,1,15,0.00
2013-3-5,50,41,28,44,36,24,97,84,43,30.05,29.55,2,0,11,0.39
2013-3-6,46,41,36,40,35,30,97,79,60,29.99,29.48,8,2,24,0.22
2013-3-7,51,40,29,33,30,27,95,69,48,30.20,29.99,5,1,14,0.01
2013-3-8,56,42,28,31,27,24,91,60,31,30.26,30.11,5,1,14,0.00
2013-3-9,63,43,27,36,30,25,94,64,27,30.31,30.20,3,0,9,0.00
2013-3-10,67,46,28,37,28,23,97,59,19,30.30,30.17,4,1,13,0.00
2013-3-11,69,53,34,53,43,29,93,71,50,30.22,29.91,10,3,18,0.00
2013-3-12,69,61,49,63,54,37,96,79,52,29.92,29.72,6,2,16,0.70
2013-3-13,56,45,31,38,30,20,96,58,31,30.10,29.91,4,1,14,0.01
2013-3-14,54,39,27,27,21,16,81,51,24,30.21,30.06,5,1,16,0.00
2013-3-15,63,43,25,38,29,22,92,61,33,30.14,29.86,6,1,13,0.00
2013-3-16,77,59,41,53,45,37,89,64,37,29.86,29.59,5,1,15,0.00
2013-3-17,59,50,41,52,44,37,97,82,70,30.16,29.78,4,1,11,0.00
2013-3-18,42,40,37,41,39,36,97,95,92,30.18,29.86,2,0,8,0.26
2013-3-19,68,51,40,47,35,16,98,64,19,29.98,29.79,4,1,17,0.23
2013-3-20,56,43,31,31,22,13,82,47,21,30.08,29.76,5,1,16,0.01
2013-3-21,45,38,32,34,21,11,87,53,29,29.94,29.71,5,2,17,0.00
2013-3-22,51,36,21,27,17,12,83,50,21,30.04,29.93,3,0,12,0.00
2013-3-23,55,41,29,35,28,22,88,64,34,30.03,29.88,3,0,8,0.00
2013-3-24,40,37,31,38,35,29,95,93,85,29.91,29.55,3,0,15,0.66
2013-3-25,49,40,35,39,32,25,97,75,43,29.77,29.53,5,1,19,0.02
2013-3-26,49,42,30,31,28,25,89,60,44,30.07,29.77,3,0,15,0.01
2013-3-27,52,41,28,30,26,22,93,58,32,30.19,30.07,5,1,18,0.00
2013-3-28,57,42,28,30,26,23,90,56,27,30.26,30.11,5,1,14,0.00
2013-3-29,61,44,27,33,28,25,93,60,27,30.30,30.14,4,1,11,0.00
2013-3-30,66,49,32,42,34,28,93,64,28,30.22,30.04,4,0,9,0.00
2013-3-31,68,55,45,57,50,-100,97,85,64,30.07,29.77,6,1,13,0.56
2013-4-1,73,60,52,54,48,35,98,71,32,29.95,29.76,4,1,14,0.31
2013-4-2,60,48,32,36,29,19,92,54,20,30.14,29.95,5,1,14,0.01
2013-4-3,60,46,31,34,27,18,87,55,21,30.27,30.11,4,0,9,0.00
2013-4-4,50,42,38,41,32,23,96,70,43,30.35,29.91,4,1,12,0.69
2013-4-5,64,48,39,50,42,38,97,84,49,29.98,29.84,3,1,10,0.59
2013-4-6,65,49,35,40,34,26,97,62,27,30.25,29.98,4,0,9,0.01
2013-4-7,72,54,34,48,40,32,94,63,36,30.27,30.07,5,1,15,0.00
2013-4-8,79,63,48,58,50,-100,98,70,40,30.14,30.00,6,1,16,0.00
2013-4-9,84,70,54,62,57,53,97,67,38,30.14,30.01,7,1,13,0.00
2013-4-10,87,73,60,64,60,56,89,65,39,30.06,29.89,8,1,14,0.00
2013-4-11,81,72,62,66,61,58,90,71,49,29.96,29.76,6,2,17,0.00
2013-4-12,81,72,64,69,64,48,95,78,54,29.77,29.56,8,3,18,0.66
2013-4-13,74,61,46,50,44,39,88,59,29,29.96,29.72,3,0,10,0.02
2013-4-14,80,62,42,55,45,38,98,62,24,30.08,29.96,4,0,11,0.00
2013-4-15,71,63,57,60,57,54,96,81,61,30.18,29.99,3,0,12,0.04
2013-4-16,76,64,56,62,58,55,97,83,51,30.28,30.16,3,0,9,0.01
2013-4-17,82,68,54,67,61,53,98,81,55,30.20,30.07,5,0,11,0.00
2013-4-18,78,69,58,64,61,57,97,75,51,30.16,30.00,6,2,16,0.00
2013-4-19,82,71,65,69,65,61,95,83,62,30.02,29.67,11,4,23,0.59
2013-4-20,66,55,44,65,43,33,95,68,33,30.23,29.76,4,0,21,0.74
2013-4-21,61,50,38,43,39,36,97,70,44,30.47,30.23,4,1,12,0.01
2013-4-22,62,49,35,46,40,33,94,72,46,30.47,30.24,3,1,11,0.02
2013-4-23,66,54,49,53,47,44,94,78,53,30.25,30.08,2,0,9,0.02
2013-4-24,76,60,43,59,52,42,98,77,52,30.11,29.93,6,1,16,0.00
2013-4-25,70,61,48,57,48,39,94,65,40,30.24,29.97,3,0,11,0.00
2013-4-26,71,57,41,51,43,34,98,68,26,30.39,30.24,5,0,11,0.00
2013-4-27,73,61,49,55,48,40,94,66,34,30.35,30.22,4,0,11,0.00
2013-4-28,61,58,54,58,52,45,97,82,63,30.23,30.08,1,0,6,0.07
2013-4-29,71,62,54,64,59,53,98,92,72,30.09,29.93,2,0,5,0.48
2013-4-30,67,60,55,60,58,54,98,92,77,30.14,29.97,1,0,6,0.10
2013-5-1,61,59,56,60,57,55,97,93,91,30.30,30.14,2,0,8,0.05
2013-5-2,63,58,52,58,56,51,96,91,82,30.31,30.22,1,0,7,0.03
2013-5-3,69,56,46,56,49,45,98,79,48,30.24,30.14,5,0,11,0.03
2013-5-4,63,55,49,55,49,45,90,82,70,30.20,30.06,3,0,14,0.03
2013-5-5,60,55,49,56,51,46,92,88,81,30.09,29.97,3,0,10,0.02
2013-5-6,66,60,56,64,58,54,97,94,88,29.98,29.80,4,0,16,0.02
2013-5-7,68,58,51,61,55,50,99,91,66,29.92,29.83,6,0,12,0.07
2013-5-8,71,60,49,63,56,48,99,90,62,29.98,29.89,4,0,13,0.18
2013-5-9,80,66,53,64,58,52,98,80,43,30.02,29.94,2,0,8,0.14
2013-5-10,85,68,54,69,58,-100,98,76,43,30.03,29.90,5,0,14,0.01
2013-5-11,81,72,65,68,64,59,97,78,56,29.91,29.75,4,0,11,0.15
2013-5-12,73,64,51,64,52,-100,98,70,34,29.99,29.75,2,0,12,0.02
2013-5-13,65,54,41,46,40,33,96,62,32,30.15,29.99,2,0,11,0.01
2013-5-14,70,55,37,49,41,36,97,64,30,30.23,30.04,3,0,10,0.00
2013-5-15,88,67,49,66,56,46,91,71,42,30.04,29.84,2,0,13,0.00
2013-5-16,85,67,60,67,41,-100,97,72,43,29.93,29.85,2,0,9,0.00
2013-5-17,87,73,60,71,59,-100,98,75,43,30.04,29.94,3,0,8,0.00
2013-5-18,77,69,61,71,65,59,97,89,72,30.14,30.03,1,0,6,0.80
2013-5-19,75,68,63,71,66,62,98,95,83,30.12,30.03,3,0,12,1.75
2013-5-20,77,70,67,71,68,66,98,94,79,30.08,29.99,5,0,13,0.77
2013-5-21,85,74,68,73,70,67,97,87,63,30.01,29.91,4,1,13,0.13
2013-5-22,84,75,70,71,68,66,95,82,61,30.00,29.87,5,2,13,0.03
2013-5-23,82,73,68,70,68,66,98,87,66,29.92,29.78,4,1,9,0.02
2013-5-24,70,64,51,68,55,40,98,75,43,30.15,29.77,5,1,19,0.01
2013-5-25,73,56,41,52,42,37,96,65,28,30.24,30.09,2,0,10,0.01
2013-5-26,73,58,43,55,47,41,97,73,35,30.24,30.13,6,0,12,0.01
2013-5-27,80,64,47,62,54,46,98,75,40,30.25,30.12,5,0,11,0.01
2013-5-28,84,70,57,69,63,55,97,79,56,30.22,30.10,5,1,14,0.00
2013-5-29,85,74,62,68,64,61,97,75,50,30.20,30.12,4,0,13,0.00
2013-5-30,86,74,62,69,65,61,98,77,46,30.24,30.14,6,0,13,0.00
2013-5-31,87,75,65,71,67,63,98,78,47,30.19,30.06,4,0,12,0.00
2013-6-1,88,77,68,71,68,65,94,74,49,30.10,29.98,4,1,11,0.00
2013-6-2,85,76,69,72,67,-100,95,76,57,30.01,29.86,5,1,14,0.12
2013-6-3,82,74,67,73,70,66,97,89,67,29.92,29.79,1,0,9,0.30
2013-6-4,78,70,63,69,65,62,98,85,61,30.07,29.90,0,0,6,0.01
2013-6-5,82,71,60,67,62,58,98,77,46,30.11,29.98,4,0,11,0.00
2013-6-6,75,70,64,72,66,58,96,88,67,30.02,29.79,5,1,11,0.04
2013-6-7,74,70,68,73,69,67,98,97,96,29.83,29.48,3,0,13,4.29
2013-6-8,83,73,66,72,68,64,98,88,61,30.06,29.78,2,0,18,0.08
2013-6-9,87,76,65,76,70,64,98,85,61,30.13,30.02,5,0,14,0.03
2013-6-10,83,75,71,77,72,69,97,92,79,30.07,29.85,7,1,22,0.97
2013-6-11,85,76,68,71,68,66,94,78,55,29.91,29.85,4,1,14,0.01
2013-6-12,90,76,63,78,70,62,98,83,59,29.93,29.82,1,0,9,0.00
2013-6-13,93,78,68,77,72,67,98,84,52,29.83,29.54,5,1,15,0.17
2013-6-14,79,69,59,67,61,58,97,77,52,29.97,29.67,3,0,12,0.04
2013-6-15,85,70,57,69,62,56,98,77,45,30.08,29.97,2,0,9,0.01
2013-6-16,86,75,65,71,66,59,96,74,60,30.08,29.96,6,1,13,0.00
2013-6-17,84,77,72,76,70,66,90,80,69,29.99,29.89,3,0,9,0.00
2013-6-18,83,74,70,75,71,68,97,89,72,29.93,29.71,5,0,12,0.80
2013-6-19,79,72,63,70,67,62,99,87,67,30.09,29.84,2,0,8,0.47
2013-6-20,82,70,63,66,63,58,98,80,53,30.20,30.08,3,0,10,0.01
2013-6-22,82,76,72,73,71,69,91,83,71,30.17,30.08,4,0,11,0.01
2013-6-23,85,76,67,76,71,66,98,86,67,30.18,30.09,2,0,11,0.01
2013-6-24,87,78,72,76,73,69,96,85,62,30.17,30.05,4,1,10,0.00
2013-6-25,89,79,71,77,72,69,94,81,60,30.09,29.96,5,0,11,0.00
2013-6-26,90,77,69,76,72,68,96,84,61,30.00,29.84,4,1,15,0.22
2013-6-27,88,77,68,78,72,67,97,85,63,29.90,29.66,4,1,14,0.01
2013-6-28,90,79,70,75,72,68,96,82,59,29.72,29.53,4,0,12,1.14
2013-6-29,84,75,69,77,72,68,98,89,70,29.69,29.56,3,0,8,1.63
2013-6-30,84,74,70,76,72,69,98,93,77,29.82,29.67,4,0,10,0.62
2013-7-1,81,75,69,75,72,68,98,92,78,29.95,29.80,4,0,11,0.86
2013-7-2,77,74,72,74,72,70,98,94,89,30.14,29.95,4,0,12,0.67
2013-7-3,85,77,73,77,74,72,98,91,74,30.20,30.11,3,0,9,0.46
2013-7-4,88,79,72,76,73,70,98,84,55,30.24,30.14,5,0,12,0.01
2013-7-5,89,79,71,77,73,70,98,84,60,30.24,30.11,5,0,10,0.01
2013-7-6,87,79,74,78,74,72,95,84,64,30.21,30.07,2,0,8,0.08
2013-7-7,88,78,69,78,73,68,98,85,65,30.14,30.01,2,0,10,0.09
2013-7-8,88,76,70,77,73,69,98,90,61,30.13,30.04,5,0,12,0.74
2013-7-9,87,76,70,78,73,69,98,91,71,30.11,30.02,3,0,11,0.02
2013-7-10,87,77,71,77,71,-100,96,85,68,30.07,29.90,3,0,16,0.12
2013-7-11,81,75,71,76,73,70,98,95,82,29.94,29.84,2,0,7,0.87
2013-7-12,75,73,70,72,71,69,98,94,85,29.98,29.83,1,0,7,0.01
2013-7-13,78,73,69,76,72,68,98,96,91,30.15,29.97,3,0,9,0.43
2013-7-14,87,78,69,77,73,68,99,87,64,30.26,30.14,3,0,9,0.01
2013-7-15,90,77,68,77,72,67,99,85,52,30.28,30.20,0,0,5,0.01
2013-7-16,93,80,68,81,73,67,99,82,59,30.22,30.12,1,0,7,0.00
2013-7-17,92,82,72,78,75,71,98,82,54,30.17,30.06,1,0,6,0.00
2013-7-18,93,82,74,81,76,73,98,84,58,30.09,29.98,0,0,3,0.00
2013-7-19,91,81,75,78,75,73,97,84,63,30.04,29.92,3,0,13,0.00
2013-7-20,88,80,75,77,74,72,91,83,67,29.98,29.86,4,1,12,0.00
2013-7-21,86,78,74,77,74,71,96,87,68,29.94,29.85,4,1,11,0.00
2013-7-22,87,78,71,77,74,70,98,87,69,29.90,29.77,5,0,10,0.00
2013-7-23,89,80,74,77,74,72,94,82,61,29.79,29.66,2,0,9,0.00
2013-7-24,92,80,69,78,72,68,98,78,50,29.80,29.67,0,0,5,0.00
2013-7-25,80,73,67,71,69,65,96,87,72,29.98,29.77,1,0,6,0.07
2013-7-26,84,72,60,70,64,59,98,81,52,30.06,29.97,2,0,6,0.01
2013-7-27,85,73,64,74,68,63,98,87,60,30.01,29.88,4,0,12,0.20
2013-7-28,86,76,69,75,71,68,98,86,61,29.93,29.87,3,0,10,0.20
2013-7-29,86,74,67,72,69,66,98,85,56,30.10,29.93,1,0,10,0.37
2013-7-30,86,74,60,73,67,59,98,81,54,30.17,30.08,0,0,4,0.01
2013-7-31,83,74,70,75,71,69,98,92,69,30.10,29.96,2,0,8,0.38
2013-8-1,84,75,70,76,72,68,98,91,73,29.97,29.81,2,0,13,0.22
2013-8-2,88,76,66,75,70,65,98,82,54,29.97,29.85,1,0,8,0.01
2013-8-3,87,76,69,78,73,68,99,91,71,29.96,29.85,3,0,10,0.75
2013-8-4,84,74,66,73,68,61,99,85,50,29.98,29.84,1,0,7,0.64
2013-8-5,82,71,61,72,65,60,98,83,53,30.05,29.95,1,0,6,0.01
2013-8-6,82,74,67,73,68,65,96,84,67,30.01,29.94,3,0,8,0.23
2013-8-7,85,76,68,74,70,67,98,84,60,30.05,29.97,5,0,11,0.01
2013-8-8,88,78,69,78,72,68,98,84,60,30.01,29.94,4,0,11,0.00
2013-8-9,90,81,74,78,75,72,97,83,66,29.98,29.92,1,0,11,0.00
2013-8-10,91,80,74,79,75,73,97,87,65,30.04,29.95,2,0,8,0.03
2013-8-11,91,79,72,78,74,71,98,86,63,30.05,29.94,1,0,5,0.02
2013-8-12,91,79,72,76,74,71,98,85,52,29.99,29.88,0,0,5,0.00
2013-8-13,88,76,70,79,71,-100,98,87,68,29.93,29.72,3,0,9,0.58
2013-8-14,75,70,60,72,63,-100,97,85,68,30.03,29.76,0,0,6,0.00
2013-8-15,76,59,57,65,42,-100,98,78,58,30.11,30.03,2,0,7,0.00
2013-8-16,71,63,56,65,56,-100,98,87,72,30.13,30.05,0,0,5,0.00
2013-8-17,72,67,60,71,66,59,97,95,91,30.13,30.07,0,0,6,0.10
2013-8-18,79,71,67,71,66,-100,99,88,74,30.15,30.06,1,0,7,0.05
2013-8-19,75,64,66,72,50,-100,98,94,88,30.15,30.05,0,0,4,0.49
2013-8-20,83,72,66,75,67,-100,99,90,73,30.13,30.06,0,0,4,0.01
2013-8-21,87,75,71,77,73,70,98,93,71,30.17,30.04,2,0,7,0.17
2013-8-22,88,78,69,75,72,68,98,83,56,30.09,29.93,1,0,6,0.04
2013-8-23,87,76,68,76,71,66,98,86,63,30.01,29.86,3,0,13,0.01
2013-8-24,83,72,63,66,64,61,96,76,51,30.24,30.02,1,0,8,0.01
2013-8-25,80,67,57,66,58,-100,99,78,51,30.34,30.23,1,0,7,0.00
2013-8-26,81,68,51,65,59,50,98,78,43,30.27,30.06,3,0,6,0.00
2013-8-27,88,69,60,73,64,59,98,86,60,30.07,29.92,3,0,8,0.00
2013-8-28,81,78,76,76,75,74,96,91,84,29.92,29.80,0,0,3,0.00
2013-8-31,88,76,65,74,70,64,99,83,58,29.91,29.80,4,1,13,0.00
2013-9-1,89,74,69,79,69,-100,98,90,68,29.84,29.72,3,0,8,1.51
2013-9-2,88,77,70,77,73,69,98,88,67,29.83,29.73,1,0,6,0.01
2013-9-3,89,77,70,77,72,69,99,87,63,29.87,29.74,0,0,7,0.01
2013-9-4,84,74,65,73,68,64,98,84,62,30.03,29.88,2,0,6,0.00
2013-9-5,87,72,62,70,64,57,99,80,37,30.04,29.96,1,0,6,0.00
2013-9-6,83,71,59,67,62,57,97,76,48,30.12,30.02,1,0,7,0.00
2013-9-14,75,66,56,58,55,52,94,70,46,30.08,29.98,0,0,1,0.00
2013-9-15,80,60,49,63,52,-100,98,82,48,30.18,30.06,0,0,8,0.00
2013-9-16,84,71,61,72,65,60,98,82,50,30.13,29.98,1,0,7,0.14
2013-9-17,76,65,55,60,56,52,96,73,43,30.27,30.14,2,0,8,0.12
2013-9-18,55,50,47,52,49,46,98,95,89,30.25,30.22,0,0,0,0.00
2013-9-19,76,64,53,65,58,52,97,84,58,30.14,30.03,0,0,5,0.00
2013-9-20,71,66,61,67,64,60,97,93,84,30.03,29.91,2,0,6,0.21
2013-9-21,76,70,66,71,68,65,98,93,83,29.91,29.67,3,1,8,0.54
2013-9-22,78,66,57,65,59,-100,98,84,54,29.84,29.67,1,0,8,0.42
2013-9-23,72,61,52,61,54,51,97,82,54,30.02,29.84,0,0,6,0.05
2013-10-4,87,71,60,68,64,59,98,81,47,30.07,29.98,3,0,8,0.00
2013-10-5,88,72,59,71,65,58,98,81,47,30.06,29.96,3,0,8,0.00
2013-10-6,83,71,60,72,67,59,99,88,64,30.01,29.88,4,1,12,0.01
2013-10-7,74,71,63,72,69,62,98,95,89,29.94,29.80,3,1,12,1.22
2013-10-8,63,60,58,62,52,48,95,76,68,30.14,29.93,1,0,12,0.01
2013-10-9,62,58,54,57,54,51,96,86,77,30.14,30.03,2,0,11,0.10
2013-10-10,61,57,54,59,55,53,97,95,93,30.03,29.88,3,0,12,0.27
2013-10-11,66,62,59,63,60,58,97,94,86,29.91,29.84,1,0,6,0.05
2013-10-12,69,64,61,65,62,60,97,94,88,30.02,29.89,0,0,4,0.00
2013-10-13,67,62,62,65,59,-100,98,94,91,30.15,30.02,1,0,7,0.07
2013-10-14,64,62,55,62,60,54,98,95,89,30.19,30.12,1,0,7,0.08
2013-10-15,71,62,51,63,58,50,99,89,71,30.14,30.00,1,0,7,0.01
2013-10-16,72,65,60,64,62,59,97,90,75,30.01,29.90,1,0,4,0.01
2013-10-17,74,66,59,67,63,58,99,89,73,29.91,29.78,1,0,8,0.00
2013-10-18,69,62,53,66,55,48,96,79,51,29.98,29.82,1,0,6,0.00
2013-10-19,70,61,57,65,60,56,97,94,84,29.92,29.75,1,0,6,0.02
2013-10-20,65,52,42,58,44,-100,98,78,42,30.06,29.84,1,0,8,0.01
2013-10-21,68,49,35,52,43,34,98,83,37,30.11,29.95,2,0,6,0.01
2013-10-22,65,57,49,59,54,48,98,92,78,29.95,29.75,1,0,5,0.01
2013-10-23,65,57,47,58,49,36,99,77,43,29.93,29.62,3,0,12,0.01
2013-10-24,58,46,33,42,36,32,97,72,43,30.12,29.93,2,0,9,0.01